Williston, ND

2:40 PM CDT on October 18, 2019 (GMT -0500)
Sloulin International

Weather History for KISN - August, 2019

Change the Weather History Date:

Tuesday, August 20, 2019

  Actual Average Record
Temperature  
Mean Temperature 65 °F 68 °F  
Max Temperature 77 °F 83 °F 101 °F (1942)
Min Temperature 52 °F 53 °F 36 °F (1907)
Degree Days  
Heating Degree Days 0 2  
Month to date heating degree days 17 21  
Since 1 June heating degree days 102 165  
Since 1 July heating degree days 32 45  
Cooling Degree Days 0 5  
Month to date cooling degree days 96 126  
Year to date cooling degree days 340 389  
Since 1 June cooling degree days 334 376  
Growing Degree Days 14 (Base 50)    
Moisture  
Dew Point 47 °F    
Average Humidity 53    
Maximum Humidity 77    
Minimum Humidity 29    
Precipitation  
Precipitation 0.00 in 0.05 in 1.15 in (1974)
Month to date precipitation 1.88 0.96  
Year to date precipitation 11.54 10.63  
Sea Level Pressure  
Sea Level Pressure 30.12 in    
Wind  
Wind Speed 8 mph (NNE)    
Max Wind Speed 20 mph    
Max Gust Speed 33 mph    
Visibility 10 miles    
Events      
T = Trace of Precipitation, MM = Missing Value Source: NWS Daily Summary

Daily Weather History Graph

Daily Weather History Graph

Search for Another Location

Airport or City:

Astronomy

Aug. 20, 2019 Rise Set
Actual Time 6:55 AM CDT 8:59 PM CDT
Civil Twilight 6:21 AM CDT 9:32 PM CDT
Nautical Twilight 5:40 AM CDT 10:14 PM CDT
Astronomical Twilight 4:53 AM CDT 11:00 PM CDT
Moon 11:26 PM CDT (8/20) 11:56 AM CDT (8/20)
Length of Visible Light 15h 11m
Length of Day
14h 03m
Waning Gibbous, 77% of the Moon is Illuminated
Aug 20
Waning Gibbous
Aug 23
Last Quarter
Aug 30
New
Sep 5
First Quarter
Sep 13
Full

Hourly Weather History & Observations

Time (CDT) Temp. Dew Point Humidity Pressure Visibility Wind Dir Wind Speed Gust Speed Precip Events Conditions
12:52 AM 68.0 °F 55.9 °F 65% 29.89 in 10.0 mi North 18.4 mph 23.0 mph N/A   Clear
1:52 AM 63.0 °F 52.0 °F 67% 29.93 in 10.0 mi North 18.4 mph 32.2 mph N/A   Clear
2:52 AM 60.1 °F 52.0 °F 75% 29.98 in 10.0 mi North 13.8 mph - N/A   Clear
3:52 AM 57.9 °F 48.9 °F 72% 30.02 in 10.0 mi North 12.7 mph - N/A   Clear
4:52 AM 55.9 °F 46.9 °F 72% 30.05 in 10.0 mi North 16.1 mph - N/A   Clear
5:52 AM 54.0 °F 46.0 °F 75% 30.07 in 10.0 mi North 18.4 mph - N/A   Clear
6:52 AM 52.0 °F 45.0 °F 77% 30.11 in 10.0 mi North 10.4 mph - N/A   Clear
7:52 AM 53.1 °F 46.0 °F 77% 30.14 in 10.0 mi NNE 6.9 mph - N/A   Clear
8:52 AM 55.0 °F 46.0 °F 72% 30.17 in 10.0 mi NNE 15.0 mph - N/A   Clear
9:52 AM 59.0 °F 46.9 °F 64% 30.19 in 10.0 mi North 11.5 mph - N/A   Clear
10:52 AM 64.0 °F 45.0 °F 50% 30.19 in 10.0 mi NNE 11.5 mph - N/A   Clear
11:52 AM 66.9 °F 45.0 °F 45% 30.19 in 10.0 mi Variable 6.9 mph - N/A   Clear
12:52 PM 70.0 °F 46.0 °F 42% 30.19 in 10.0 mi NNE 9.2 mph - N/A   Clear
1:52 PM 72.0 °F 46.0 °F 40% 30.19 in 10.0 mi North - - N/A   Clear
2:52 PM 73.0 °F 45.0 °F 37% 30.18 in 10.0 mi Variable 5.8 mph - N/A   Clear
3:52 PM 73.9 °F 45.0 °F 35% 30.17 in 10.0 mi NE 4.6 mph - N/A   Clear
4:52 PM 75.0 °F 44.1 °F 33% 30.17 in 10.0 mi Calm Calm - N/A   Clear
5:52 PM 77.0 °F 43.0 °F 30% 30.15 in 10.0 mi East 3.5 mph - N/A   Clear
6:52 PM 77.0 °F 45.0 °F 32% 30.15 in 10.0 mi Variable 4.6 mph - N/A   Clear
7:52 PM 73.9 °F 43.0 °F 33% 30.15 in 10.0 mi NNE 6.9 mph - N/A   Clear
8:52 PM 68.0 °F 46.9 °F 47% 30.16 in 10.0 mi North 5.8 mph - N/A   Clear
9:52 PM 59.0 °F 48.0 °F 67% 30.18 in 10.0 mi Calm Calm - N/A   Clear
10:52 PM 57.9 °F 46.9 °F 67% 30.18 in 10.0 mi NNE 3.5 mph - N/A   Clear
11:52 PM 57.9 °F 48.9 °F 72% 30.20 in 10.0 mi NE 3.5 mph - N/A   Clear